[[[{"header":{"parameterUnit":"kt","parameterCategory":2,"dx":1,"dy":1,"la1":30.253999710083008,"la2":30.299108505249023,"lo1":-89.0895004272461,"lo2":-89.04439544677734,"nx":28,"ny":28,"refTime":"2022-10-20T21:00:00:Z","depth":"0","parameterNumber":2,"parameterNumberName":"U-component_of_CURRENTS"},"data":[0.1405,0.1544,0.1586,0.1743,0.1823,0.1931,0.1974,0.2052,0.2188,0.2338,0.2479,0.2596,0.2614,0.2499,0.2174,0.2069,0.1593,0.1593,0.1251,0.1561,0.1551,0.1541,0.1527,0.1625,0.1624,0.0804,0.0797,0.0792,0.1303,0.139,0.1559,0.1678,0.1783,0.1813,0.1957,0.2005,0.2107,0.2298,0.241,0.2658,0.2723,0.2659,0.2578,0.2265,0.1987,0.2021,0.1734,0.1617,0.2079,0.21,0.2321,0.2321,0.2321,0.2322,0.2322,0.2322,0.1136,0.1249,0.1313,0.1452,0.1584,0.1689,0.1794,0.1888,0.2042,0.2159,0.2262,0.2401,0.2573,0.2585,0.2435,0.2258,0.2074,0.206,0.1944,0.1745,0.1638,0.2067,0.2364,0.2362,0.236,0.2358,0.2357,0,0.0921,0.0957,0.1008,0.1164,0.1302,0.1408,0.1555,0.1675,0.171,0.187,0.2025,0.2122,0.2285,0.2333,0.2293,0.2224,0.1755,0.1981,0.1728,0.1727,0.1466,0.1344,0.1715,0.2003,0.1998,0.1995,0.1993,0.1991,0.0672,0.0725,0.0762,0.0843,0.0864,0.1018,0.1149,0.1191,0.1326,0.1508,0.165,0.1814,0.1933,0.202,0.1958,0.1893,0.1613,0.1888,0.1746,0.1468,0.1348,0.1129,0.1013,0.1944,0.195,0.1955,0.1959,0,0.0557,0.0451,0.0517,0.0506,0.0529,0.0679,0.0814,0.0975,0.106,0.1309,0.1376,0.1449,0.1564,0.1517,0.157,0.1448,0.1408,0.1493,0.1584,0.1617,0.1403,0.1283,0.1264,0.115,0.153,0.1534,0.1537,0,0.0306,0.0331,0.0219,0.0267,0.041,0.0334,0.0571,0.0623,0.0782,0.0977,0.0954,0.1141,0.11,0.1209,0.1127,0.1222,0.1251,0.1161,0.1184,0.1294,0.1305,0.112,0.0996,0.114,0.114,0.1139,0.1139,0,0.02,0.0073,0.0104,0.0085,0.0072,0.0148,0.0203,0.0349,0.0479,0.0642,0.0778,0.0858,0.1,0.0996,0.1018,0.0928,0.1156,0.1049,0.1111,0.1111,0.1249,0.1257,0.129,0.1138,0.1138,0.1138,0.1137,0,0.0,-0.0064,-0.0051,-0.0077,-0.006,-0.0006,0.016,0.0212,0.038,0.0452,0.0558,0.0622,0.0743,0.068,0.0798,0.0747,0.0755,0.0777,0.0782,0.0834,0.0789,0.0996,0.1229,0.1013,0.0777,0.0775,0.0773,0,-0.0045,-0.0116,-0.0212,-0.019,-0.0175,-0.0196,-0.0103,-0.0035,0.0056,0.022,0.0281,0.0446,0.0361,0.0461,0.0513,0.0594,0.0646,0.0559,0.0657,0.0658,0.0726,0.0922,0.1079,0.1177,0.0741,0.0745,0.0747,0,-0.0069,-0.0234,-0.0236,-0.0252,-0.0307,-0.0267,-0.0227,-0.0133,-0.0026,0.0011,0.0176,0.0252,0.0304,0.0338,0.0369,0.0442,0.0586,0.0411,0.0414,0.0431,0.0772,0.0862,0.089,0.0634,0.0639,0.0642,0.0722,0,-0.0161,-0.0231,-0.0247,-0.0318,-0.0308,-0.0306,-0.0269,-0.0233,-0.019,-0.0131,0.0,0.0061,0.0165,0.0183,0.0184,0.0325,0.0283,0.0289,0.0233,0.0349,0.0361,0.0381,0.0109,0.0107,0.0105,0.0103,0,0,-0.0139,-0.0225,-0.0287,-0.0335,-0.0324,-0.0327,-0.0314,-0.0288,-0.0247,-0.0188,-0.02,-0.0047,-0.0034,0.0091,0.0134,0.0132,0.0152,0.0082,0.0278,0.0297,0.0315,0.0334,0.0355,0.0099,0.0099,0.0098,0.0097,0,-0.0168,-0.0242,-0.0296,-0.0312,-0.0344,-0.0324,-0.0327,-0.0307,-0.0282,-0.0227,-0.0199,-0.0125,-0.009,-0.0027,-0.0001,0.0098,0.0061,0.0088,0.0148,0.0257,0.0279,0.0299,0.0322,0.0343,0.0092,0.0093,0.0093,0,-0.017,-0.024,-0.0267,-0.0323,-0.0319,-0.0305,-0.0311,-0.032,-0.0291,-0.0299,-0.024,-0.0207,-0.0184,-0.0116,-0.0099,-0.0134,-0.0015,-0.0081,-0.007,-0.0086,0.0023,0.0048,0.007,-0.0217,-0.0218,-0.0219,0,0,-0.0195,-0.0275,-0.028,-0.0319,-0.0316,-0.0311,-0.0309,-0.0318,-0.0296,-0.0294,-0.0271,-0.0251,-0.0206,-0.0197,-0.0177,-0.0141,-0.0136,-0.0115,-0.0101,-0.0089,-0.0097,0.0013,0.0037,-0.0222,-0.0222,-0.0222,0,0,-0.0171,-0.0244,-0.0267,-0.0317,-0.0308,-0.0289,-0.0291,-0.0295,-0.028,-0.0293,-0.0282,-0.028,-0.023,-0.0253,-0.0286,-0.0198,-0.0261,-0.0255,-0.0175,-0.0158,-0.0143,-0.0154,-0.0334,0,0,0,0,0,-0.0201,-0.0239,-0.0261,-0.027,-0.0307,-0.0288,-0.0288,-0.0287,-0.0299,-0.0302,-0.0274,-0.0316,-0.025,-0.0278,-0.0283,-0.0241,-0.0258,-0.0252,-0.0246,-0.0134,-0.0115,-0.0099,0,0,0,0,0,0,-0.0205,-0.0218,-0.0257,-0.0248,-0.0255,-0.0289,-0.0292,-0.0292,-0.0298,-0.03,-0.0314,-0.0316,-0.0316,-0.028,-0.0283,-0.0242,-0.0334,-0.0256,-0.025,-0.0245,-0.0128,-0.0112,-0.0099,0,0,0,0,0,-0.0207,-0.0218,-0.0294,-0.0246,-0.0252,-0.0251,-0.0292,-0.0293,-0.0306,-0.0302,-0.0305,-0.0306,-0.0316,-0.0319,-0.0282,-0.0239,-0.0332,-0.0333,-0.0252,-0.0248,-0.0244,-0.012,0,0,0,0,0,0,-0.0208,-0.0213,-0.0293,-0.0292,-0.0247,-0.0249,-0.0256,-0.0293,-0.0308,-0.031,-0.0292,-0.0293,-0.0315,-0.0318,-0.032,-0.0235,-0.0331,-0.0332,-0.0332,-0.0249,-0.0245,-0.0242,0,0,0,0,0,0,-0.0206,-0.0214,-0.0293,-0.0295,-0.0295,-0.0246,-0.0253,-0.0261,-0.0309,-0.03,-0.03,-0.0293,-0.0315,-0.0317,-0.0319,-0.033,-0.033,-0.0331,-0.0331,-0.0332,-0.0246,-0.0243,0,0,0,0,0,0,-0.0208,-0.0214,-0.0296,-0.0296,-0.0295,-0.0288,-0.0253,-0.0298,-0.0296,-0.03,-0.0297,-0.0297,-0.0314,-0.0316,-0.0318,-0.0329,-0.033,-0.033,-0.033,-0.0331,-0.0331,0,0,0,0,0,0,0,-0.0209,-0.0185,-0.0294,-0.0296,-0.0296,-0.0282,-0.0283,-0.0283,-0.0296,-0.0297,-0.0297,-0.0297,-0.0325,-0.0326,-0.0327,-0.0327,0,0,-0.033,-0.033,0,0,0,0,0,0,0,0,-0.0181,-0.0184,-0.0294,-0.0293,-0.0293,-0.0282,-0.0283,-0.0283,-0.0297,-0.0297,-0.0297,-0.0297,-0.0325,-0.0326,-0.0327,0,0,0,0,0,0,0,0,0,0,0,0,0,0,0,-0.0294,-0.0293,0,-0.0282,-0.0283,-0.0283,-0.0297,-0.0297,-0.0297,-0.0297,-0.0326,-0.0326,-0.0327,0,0,0,0,0,0,0,0,0,0,0,0,0,0,0,0,0,0,0,0,0,0,0,0,0,0,0,0,0,0,0,0,0,0,0,0,0,0,0,0,0,0,0,0,0,0,0,0,0,0,0,0,0,0,0,0,0,0,0,0,0,0,0,0,0,0,0,0,0]}],[{"header":{"parameterUnit":"kt","parameterCategory":2,"dx":1,"dy":1,"la1":30.253999710083008,"la2":30.299108505249023,"lo1":-89.0895004272461,"lo2":-89.04439544677734,"nx":28,"ny":28,"refTime":"2022-10-20T21:00:00:Z","depth":"0","parameterNumber":3,"parameterNumberName":"V-component_of_CURRENTS"},"data":[0.1817,0.1866,0.1886,0.2188,0.2354,0.2678,0.2899,0.3163,0.3408,0.3803,0.4016,0.4197,0.404,0.2695,0.1692,0.1317,0.0831,0.0687,0.0376,0.0833,0.0847,0.0859,0.0923,0.0723,0.0721,0.0063,0.0057,0.0052,0.1743,0.1756,0.1848,0.2043,0.226,0.2397,0.2836,0.3066,0.3404,0.3722,0.3925,0.4021,0.3494,0.2851,0.2012,0.1374,0.1029,0.1048,0.0997,0.09,0.138,0.147,0.1383,0.1383,0.1383,0.1384,0.1384,0.1384,0.1651,0.167,0.1681,0.1848,0.2058,0.2393,0.2635,0.299,0.3358,0.3718,0.383,0.3891,0.3602,0.2709,0.2119,0.1386,0.1276,0.1267,0.1116,0.1002,0.0946,0.1544,0.1311,0.1309,0.1307,0.1306,0.1304,0,0.1574,0.1584,0.1632,0.1732,0.1954,0.2253,0.26,0.2807,0.3231,0.3445,0.3693,0.371,0.3267,0.2889,0.2187,0.178,0.1333,0.1385,0.1244,0.1345,0.1314,0.1128,0.1666,0.1519,0.1518,0.1518,0.1517,0.1517,0.1553,0.1534,0.1646,0.1738,0.1847,0.2099,0.2322,0.2647,0.2925,0.3261,0.3411,0.3309,0.3331,0.2695,0.2166,0.1614,0.1426,0.1386,0.1405,0.1364,0.1147,0.1043,0.096,0.1508,0.1509,0.151,0.1511,0,0.1562,0.1558,0.164,0.1791,0.1879,0.2029,0.2455,0.2663,0.2859,0.3151,0.3201,0.3276,0.3053,0.2728,0.2254,0.1986,0.1501,0.1453,0.1725,0.1643,0.1336,0.1224,0.0842,0.0718,0.116,0.1158,0.1156,0,0.1614,0.1675,0.1766,0.1776,0.1931,0.2132,0.2384,0.2531,0.2779,0.3024,0.3041,0.3156,0.2841,0.2646,0.2345,0.1968,0.1938,0.168,0.156,0.1726,0.1738,0.1554,0.144,0.16,0.1602,0.1604,0.1606,0,0.1731,0.1806,0.1819,0.1855,0.2052,0.2172,0.2328,0.2551,0.2731,0.2869,0.2973,0.2915,0.2883,0.26,0.2334,0.2334,0.1962,0.1871,0.1638,0.1634,0.1668,0.1672,0.1506,0.1608,0.1609,0.161,0.161,0,0.1858,0.1853,0.1856,0.2069,0.2115,0.2202,0.2436,0.2538,0.2705,0.2782,0.2851,0.2855,0.2808,0.2709,0.2417,0.2496,0.2261,0.209,0.2071,0.1994,0.1858,0.1845,0.1795,0.1682,0.1838,0.1841,0.1843,0,0.1953,0.1921,0.2021,0.2094,0.2112,0.2264,0.2349,0.2482,0.2581,0.2664,0.2673,0.2704,0.2663,0.2659,0.2555,0.236,0.2242,0.2371,0.1932,0.1922,0.1938,0.1878,0.2042,0.1835,0.1877,0.1873,0.1871,0,0.2035,0.2099,0.21,0.2172,0.225,0.2299,0.2377,0.2472,0.256,0.2562,0.2624,0.2594,0.2603,0.2574,0.2522,0.2414,0.229,0.2302,0.229,0.225,0.1952,0.1927,0.1901,0.2151,0.2148,0.2145,0.1897,0,0.2136,0.2167,0.2163,0.2232,0.2283,0.2269,0.2355,0.2403,0.2439,0.2476,0.2505,0.2446,0.242,0.2382,0.2362,0.2315,0.226,0.2162,0.2141,0.2127,0.2016,0.1996,0.2196,0.2193,0.2191,0.2189,0,0,0.2214,0.2213,0.2286,0.2291,0.2302,0.2349,0.2354,0.2393,0.237,0.2414,0.2382,0.2331,0.2279,0.2289,0.2308,0.2236,0.2138,0.2292,0.2131,0.2125,0.2119,0.2015,0.1998,0.2185,0.2185,0.2184,0.2183,0,0.2227,0.2293,0.2304,0.2313,0.2329,0.2348,0.2342,0.2335,0.2371,0.2362,0.234,0.2316,0.2252,0.2245,0.2222,0.2212,0.2123,0.2174,0.2289,0.2117,0.2115,0.2111,0.2009,0.1996,0.2178,0.2178,0.2178,0,0.2284,0.2299,0.2309,0.2323,0.2335,0.2339,0.2324,0.2319,0.2336,0.229,0.231,0.2273,0.2213,0.2209,0.2191,0.2175,0.2092,0.2144,0.2151,0.2206,0.2027,0.2024,0.2021,0.2062,0.2063,0.2064,0,0,0.2308,0.2336,0.2327,0.2321,0.2332,0.2322,0.231,0.2319,0.2297,0.2305,0.2283,0.225,0.2221,0.2207,0.2176,0.2151,0.2067,0.214,0.2145,0.2151,0.2207,0.2032,0.2029,0.2066,0.2066,0.2066,0,0,0.2288,0.2303,0.2341,0.2335,0.2325,0.2291,0.2294,0.2282,0.229,0.2312,0.2276,0.2271,0.2253,0.2202,0.2236,0.2184,0.2146,0.2139,0.2267,0.2273,0.2277,0.2368,0.2236,0,0,0,0,0,0.2306,0.23,0.2335,0.233,0.2327,0.2286,0.2286,0.2289,0.2293,0.2307,0.2297,0.2287,0.2217,0.2248,0.2238,0.2259,0.2095,0.209,0.2085,0.2241,0.2247,0.2253,0,0,0,0,0,0,0.2304,0.2303,0.2331,0.2297,0.2293,0.2288,0.2302,0.2306,0.2293,0.2299,0.2291,0.2287,0.2285,0.2251,0.2243,0.2264,0.2239,0.2093,0.2088,0.2085,0.2243,0.2248,0.2253,0,0,0,0,0,0.2302,0.23,0.2304,0.2297,0.2294,0.2283,0.2305,0.2308,0.2323,0.2285,0.2284,0.232,0.2285,0.2276,0.2246,0.2269,0.2245,0.2241,0.209,0.2087,0.2083,0.2246,0,0,0,0,0,0,0.23,0.233,0.2303,0.23,0.23,0.2285,0.229,0.2309,0.2312,0.2308,0.2311,0.2314,0.2285,0.2278,0.2272,0.2273,0.2249,0.2246,0.2244,0.2087,0.2085,0.2082,0,0,0,0,0,0,0.2328,0.2329,0.2303,0.2307,0.2306,0.2287,0.2291,0.2254,0.2311,0.2342,0.2343,0.2311,0.2262,0.2279,0.2274,0.222,0.2253,0.225,0.2248,0.2246,0.2085,0.2083,0,0,0,0,0,0,0.2327,0.2328,0.231,0.2308,0.2308,0.229,0.2254,0.2247,0.2334,0.2343,0.2336,0.2337,0.226,0.2258,0.2276,0.2224,0.2221,0.2253,0.2251,0.2249,0.2248,0,0,0,0,0,0,0,0.2327,0.2333,0.2297,0.231,0.2309,0.2266,0.2268,0.2269,0.2334,0.2335,0.2336,0.2337,0.227,0.2267,0.2264,0.2227,0,0,0.2253,0.2252,0,0,0,0,0,0,0,0,0.2331,0.2332,0.2297,0.2295,0.2293,0.2266,0.2268,0.2269,0.2334,0.2335,0.2336,0.2336,0.2269,0.2267,0.2264,0,0,0,0,0,0,0,0,0,0,0,0,0,0,0,0.2297,0.2295,0,0.2267,0.2268,0.2269,0.2334,0.2335,0.2335,0.2336,0.2269,0.2266,0.2264,0,0,0,0,0,0,0,0,0,0,0,0,0,0,0,0,0,0,0,0,0,0,0,0,0,0,0,0,0,0,0,0,0,0,0,0,0,0,0,0,0,0,0,0,0,0,0,0,0,0,0,0,0,0,0,0,0,0,0,0,0,0,0,0,0,0,0,0,0]}]],[[{"header":{"parameterUnit":"kt","parameterCategory":2,"dx":1,"dy":1,"la1":30.253999710083008,"la2":30.299108505249023,"lo1":-89.0895004272461,"lo2":-89.04439544677734,"nx":28,"ny":28,"refTime":"2022-10-20T21:00:00:Z","depth":"2","parameterNumber":2,"parameterNumberName":"U-component_of_CURRENTS"},"data":[0.1171,0.1142,0.1136,0.1113,0.1144,0.1156,0.1184,0.1237,0.1285,0.1331,0.1324,0.1474,0.1453,0.1137,0.1087,0.0936,0.1219,0.0911,0.1804,0.1666,0.1725,0.1845,0.1533,0,0,0,0,0,0.119,0.1185,0.1183,0.119,0.1183,0.1238,0.1253,0.1254,0.136,0.1485,0.164,0.1482,0.1482,0.155,0.1452,0.1583,0.1553,0.1529,0.1365,0.1429,0.1488,0.1246,0.0851,0.085,0.0849,0.0848,0,0,0.1224,0.1213,0.1225,0.125,0.1262,0.1268,0.1268,0.1303,0.1387,0.1533,0.1677,0.18,0.182,0.2052,0.213,0.2148,0.2412,0.2306,0.2324,0.2352,0.2156,0.2003,0.2,0.2005,0.201,0.2015,0.2019,0,0.1251,0.127,0.1257,0.1292,0.1293,0.1289,0.1287,0.1322,0.1382,0.1503,0.1676,0.1839,0.2116,0.2184,0.2456,0.261,0.268,0.2626,0.3242,0.2277,0.212,0.2086,0.209,0.2175,0.2182,0.2187,0.2191,0.2194,0.1285,0.1283,0.1297,0.1303,0.13,0.1286,0.1291,0.1319,0.1354,0.153,0.1602,0.1824,0.2027,0.2484,0.2662,0.2993,0.3109,0.2771,0.2674,0.3099,0.3072,0.3041,0.3012,0.2269,0.2259,0.2252,0.2245,0,0.1301,0.131,0.1298,0.1289,0.1295,0.1279,0.1292,0.1316,0.1387,0.1524,0.1567,0.1767,0.2038,0.23,0.2697,0.2843,0.3125,0.318,0.2648,0.2587,0.3039,0.3007,0.3325,0.3323,0.3322,0.332,0.3319,0,0.1329,0.1311,0.131,0.1301,0.1295,0.1273,0.1299,0.1338,0.1436,0.1532,0.1656,0.1787,0.2083,0.2317,0.2554,0.2834,0.2937,0.2984,0.2988,0.2572,0.2521,0.2878,0.2841,0.3179,0.3177,0.3175,0.3173,0,0.1342,0.1334,0.1323,0.1313,0.1312,0.1309,0.1306,0.1391,0.1441,0.158,0.1644,0.1896,0.2005,0.2283,0.2505,0.2488,0.2893,0.2873,0.2906,0.2895,0.2528,0.2473,0.317,0.317,0.3169,0.3168,0.3168,0,0.136,0.1369,0.1355,0.1332,0.132,0.1321,0.1349,0.1379,0.152,0.1567,0.1719,0.1791,0.2029,0.2028,0.2407,0.2297,0.245,0.2563,0.2575,0.2409,0.2301,0.2125,0.2267,0.2643,0.2638,0.2634,0.263,0,0.1342,0.1353,0.1376,0.1358,0.1341,0.1351,0.1379,0.1427,0.1481,0.1537,0.1695,0.1759,0.1813,0.1846,0.2028,0.2156,0.2327,0.2152,0.2364,0.237,0.2247,0.2466,0.2012,0.2215,0.2573,0.2579,0.2583,0,0.1335,0.1368,0.1364,0.1332,0.1343,0.1333,0.1391,0.1415,0.1426,0.1497,0.153,0.1715,0.1735,0.1779,0.1817,0.1962,0.2226,0.1951,0.1954,0.2073,0.2538,0.2401,0.2426,0.2243,0.225,0.2255,0.2537,0,0.1308,0.1312,0.1341,0.1333,0.1323,0.1341,0.1323,0.1343,0.1314,0.1313,0.1425,0.1504,0.1548,0.1595,0.1616,0.1809,0.1791,0.1751,0.1696,0.1838,0.1934,0.1971,0.1491,0.1488,0.1485,0.1483,0,0,0.1243,0.1278,0.1289,0.1293,0.1254,0.1217,0.12,0.1225,0.1184,0.1196,0.1178,0.1268,0.1305,0.1453,0.1526,0.1514,0.1578,0.1497,0.1736,0.1765,0.1791,0.1892,0.193,0.1478,0.1477,0.1476,0.1476,0,0.1245,0.1251,0.1284,0.1263,0.122,0.1196,0.1179,0.1116,0.1118,0.1141,0.1126,0.1202,0.1228,0.1309,0.1346,0.1468,0.1477,0.1464,0.1568,0.1709,0.174,0.1768,0.1874,0.191,0.1469,0.1469,0.147,0,0.1179,0.117,0.1181,0.1163,0.1124,0.111,0.1026,0.1036,0.1033,0.0991,0.0997,0.1034,0.1073,0.1188,0.122,0.1178,0.1389,0.1275,0.1288,0.1296,0.1437,0.1472,0.1504,0.1107,0.1106,0.1106,0,0,0.1159,0.1205,0.1122,0.1141,0.1122,0.1031,0.1007,0.0989,0.0979,0.0984,0.0958,0.0974,0.1044,0.1069,0.1121,0.1189,0.1224,0.1236,0.1253,0.1268,0.1284,0.1427,0.146,0.1103,0.1103,0.1103,0,0,0.1145,0.1106,0.1046,0.1075,0.1031,0.0976,0.0989,0.0911,0.0936,0.0947,0.0914,0.0925,0.1014,0.0994,0.0962,0.1111,0.1032,0.1039,0.1151,0.1171,0.1188,0.1205,0.0943,0,0,0,0,0,0.1056,0.1107,0.1051,0.1038,0.099,0.0984,0.0978,0.0933,0.0856,0.0897,0.0901,0.0878,0.1005,0.0978,0.0983,0.106,0.1071,0.1077,0.1082,0.1241,0.1263,0.1282,0,0,0,0,0,0,0.105,0.1042,0.1048,0.0992,0.0976,0.0983,0.0923,0.0915,0.0857,0.0855,0.0875,0.088,0.0911,0.0973,0.0979,0.1053,0.0941,0.1073,0.1078,0.1083,0.1249,0.1267,0.1282,0,0,0,0,0,0.1045,0.1037,0.0981,0.0991,0.0978,0.0908,0.0925,0.0917,0.0891,0.0895,0.0898,0.085,0.0911,0.0917,0.0976,0.1051,0.0937,0.0939,0.1077,0.108,0.1084,0.1258,0,0,0,0,0,0,0.1041,0.1059,0.0976,0.0968,0.0984,0.091,0.0905,0.092,0.0938,0.0933,0.0875,0.0874,0.0911,0.0916,0.092,0.1054,0.0934,0.0936,0.0938,0.1079,0.1082,0.1085,0,0,0,0,0,0,0.106,0.1055,0.0973,0.0967,0.0959,0.0912,0.0907,0.0931,0.0942,0.0924,0.0919,0.0875,0.0909,0.0915,0.0918,0.0956,0.0932,0.0934,0.0935,0.0936,0.1082,0.1084,0,0,0,0,0,0,0.1056,0.1051,0.0971,0.0964,0.0957,0.0877,0.0936,0.0907,0.0878,0.0929,0.0877,0.0876,0.0909,0.0912,0.0917,0.0954,0.0956,0.0932,0.0933,0.0934,0.0935,0,0,0,0,0,0,0,0.1052,0.1109,0.1,0.0962,0.0956,0.0883,0.0883,0.0884,0.0878,0.0878,0.0877,0.0876,0.092,0.0922,0.0924,0.0952,0,0,0.0931,0.0932,0,0,0,0,0,0,0,0,0.1108,0.1108,0.0999,0.0996,0.0993,0.0883,0.0883,0.0883,0.0878,0.0878,0.0877,0.0877,0.092,0.0922,0.0924,0,0,0,0,0,0,0,0,0,0,0,0,0,0,0,0.0999,0.0996,0,0.0883,0.0883,0.0883,0.0878,0.0878,0.0877,0.0877,0.0921,0.0922,0.0924,0,0,0,0,0,0,0,0,0,0,0,0,0,0,0,0,0,0,0,0,0,0,0,0,0,0,0,0,0,0,0,0,0,0,0,0,0,0,0,0,0,0,0,0,0,0,0,0,0,0,0,0,0,0,0,0,0,0,0,0,0,0,0,0,0,0,0,0,0]}],[{"header":{"parameterUnit":"kt","parameterCategory":2,"dx":1,"dy":1,"la1":30.253999710083008,"la2":30.299108505249023,"lo1":-89.0895004272461,"lo2":-89.04439544677734,"nx":28,"ny":28,"refTime":"2022-10-20T21:00:00:Z","depth":"2","parameterNumber":3,"parameterNumberName":"V-component_of_CURRENTS"},"data":[-0.1508,-0.1401,-0.1344,-0.1047,-0.0924,-0.0589,-0.0345,0.008,0.037,0.074,0.0799,0.0887,0.049,0.0219,-0.0006,-0.0201,-0.0248,-0.0207,-0.007,-0.0232,-0.0234,-0.046,-0.0504,0,0,0,0,0,-0.1554,-0.1498,-0.1413,-0.122,-0.1029,-0.0979,-0.0592,-0.0303,0.016,0.0455,0.0761,0.0571,0.0477,0.024,-0.0059,-0.018,-0.0252,-0.0263,-0.0418,-0.0425,-0.0431,-0.0455,-0.0366,-0.0366,-0.0366,-0.0366,0,0,-0.1592,-0.1562,-0.1454,-0.1346,-0.121,-0.0957,-0.0762,-0.0453,-0.0135,0.0309,0.0376,0.0572,0.0379,0.0255,0.0124,-0.0087,-0.0094,-0.0291,-0.0301,-0.031,-0.0321,-0.0283,-0.02,-0.0199,-0.0198,-0.0198,-0.0197,0,-0.1575,-0.1527,-0.147,-0.1361,-0.1235,-0.1088,-0.0869,-0.0713,-0.0422,-0.0215,0.0118,0.027,0.0296,0.0219,0.0096,0.0009,-0.0298,-0.0281,-0.0262,-0.0562,-0.053,-0.0561,-0.0569,-0.0495,-0.0495,-0.0496,-0.0496,-0.0497,-0.1515,-0.1498,-0.1381,-0.1322,-0.1257,-0.114,-0.1019,-0.0837,-0.0654,-0.0371,-0.0233,-0.011,0.0077,0.0051,-0.0075,-0.0149,-0.026,-0.0302,-0.0431,-0.0406,-0.0433,-0.0445,-0.0455,-0.0505,-0.0504,-0.0503,-0.0502,0,-0.1477,-0.1405,-0.1351,-0.1224,-0.1183,-0.113,-0.0932,-0.0816,-0.0679,-0.0476,-0.0414,-0.0266,-0.0191,-0.0257,-0.0322,-0.0394,-0.0432,-0.0431,-0.0475,-0.0494,-0.0473,-0.0479,-0.036,-0.0355,-0.0352,-0.0349,-0.0346,0,-0.1402,-0.1352,-0.1239,-0.1217,-0.1147,-0.1049,-0.0939,-0.0854,-0.0694,-0.0547,-0.0501,-0.0363,-0.0448,-0.0425,-0.051,-0.0505,-0.0544,-0.0589,-0.0603,-0.0688,-0.0686,-0.0725,-0.0726,-0.0717,-0.0718,-0.0718,-0.0719,0,-0.1363,-0.1266,-0.1222,-0.119,-0.1078,-0.1022,-0.0946,-0.0829,-0.0749,-0.0616,-0.0513,-0.0506,-0.0471,-0.0529,-0.0575,-0.0629,-0.0603,-0.0704,-0.0646,-0.0639,-0.0667,-0.0662,-0.072,-0.072,-0.072,-0.072,-0.0721,0,-0.1301,-0.1282,-0.1212,-0.1118,-0.1089,-0.1024,-0.0913,-0.0846,-0.0735,-0.0653,-0.059,-0.0562,-0.0578,-0.0618,-0.067,-0.0686,-0.0732,-0.0777,-0.0777,-0.0646,-0.0696,-0.0645,-0.0681,-0.0773,-0.0774,-0.0775,-0.0776,0,-0.1229,-0.1204,-0.1227,-0.1136,-0.1099,-0.1021,-0.096,-0.0879,-0.0793,-0.0649,-0.0705,-0.0655,-0.0706,-0.0698,-0.0737,-0.0804,-0.0812,-0.0844,-0.0807,-0.0803,-0.0668,-0.07,-0.0779,-0.0696,-0.0786,-0.0785,-0.0784,0,-0.1237,-0.1251,-0.1233,-0.1166,-0.1094,-0.1056,-0.1005,-0.0899,-0.0795,-0.0705,-0.0558,-0.0742,-0.066,-0.0726,-0.0785,-0.0811,-0.0828,-0.083,-0.083,-0.0738,-0.082,-0.0725,-0.0709,-0.0886,-0.0885,-0.0885,-0.0792,0,-0.1087,-0.1121,-0.1163,-0.1134,-0.1085,-0.1065,-0.0935,-0.0868,-0.0725,-0.0596,-0.0604,-0.0679,-0.0651,-0.0733,-0.0801,-0.0854,-0.083,-0.0871,-0.0788,-0.0859,-0.0816,-0.081,-0.0867,-0.0866,-0.0865,-0.0864,0,0,-0.096,-0.1096,-0.1164,-0.1138,-0.104,-0.0897,-0.0831,-0.0782,-0.0593,-0.0533,-0.0496,-0.0497,-0.0581,-0.0703,-0.0761,-0.0834,-0.0812,-0.0755,-0.0856,-0.0855,-0.0854,-0.0814,-0.0809,-0.0862,-0.0862,-0.0862,-0.0862,0,-0.0961,-0.1076,-0.118,-0.1112,-0.0954,-0.0858,-0.0821,-0.0606,-0.0536,-0.0495,-0.0443,-0.0488,-0.0556,-0.0613,-0.0679,-0.0818,-0.0751,-0.0863,-0.0829,-0.085,-0.085,-0.085,-0.0812,-0.0808,-0.0859,-0.086,-0.086,0,-0.0851,-0.0855,-0.0944,-0.093,-0.0805,-0.0728,-0.0563,-0.0504,-0.042,-0.0378,-0.0268,-0.0322,-0.0429,-0.0552,-0.0599,-0.0566,-0.0676,-0.0688,-0.0696,-0.0621,-0.0636,-0.0639,-0.0642,-0.0588,-0.0587,-0.0586,0,0,-0.0791,-0.0973,-0.0806,-0.0885,-0.0835,-0.0599,-0.052,-0.0423,-0.036,-0.0348,-0.0259,-0.0275,-0.0385,-0.0421,-0.0506,-0.0613,-0.0568,-0.0652,-0.0665,-0.0675,-0.0609,-0.0625,-0.063,-0.0581,-0.0581,-0.0581,0,0,-0.0721,-0.0723,-0.0625,-0.0757,-0.0619,-0.043,-0.0416,-0.0252,-0.0262,-0.0254,-0.0191,-0.0207,-0.0315,-0.0342,-0.028,-0.0463,-0.0415,-0.043,-0.0427,-0.0443,-0.0456,-0.0349,-0.0228,0,0,0,0,0,-0.057,-0.0733,-0.0645,-0.0628,-0.0543,-0.0467,-0.044,-0.0272,-0.0118,-0.0178,-0.0153,-0.0117,-0.0329,-0.0275,-0.0295,-0.0333,-0.0522,-0.0532,-0.0542,-0.0567,-0.0584,-0.0598,0,0,0,0,0,0,-0.0563,-0.0566,-0.0632,-0.0466,-0.0432,-0.0467,-0.0298,-0.026,-0.0117,-0.0102,-0.0114,-0.012,-0.0147,-0.0264,-0.0282,-0.0318,-0.0222,-0.0526,-0.0535,-0.0543,-0.0573,-0.0587,-0.0599,0,0,0,0,0,-0.0555,-0.0555,-0.051,-0.0457,-0.043,-0.0195,-0.03,-0.0267,-0.0194,-0.0157,-0.0153,-0.0053,-0.0149,-0.0164,-0.0275,-0.031,-0.021,-0.0217,-0.0532,-0.0539,-0.0545,-0.058,0,0,0,0,0,0,-0.0547,-0.0558,-0.0495,-0.0469,-0.0424,-0.0192,-0.0179,-0.0273,-0.0264,-0.0243,-0.0105,-0.0095,-0.0152,-0.0163,-0.0174,-0.0307,-0.02,-0.0207,-0.0211,-0.0537,-0.0543,-0.0548,0,0,0,0,0,0,-0.0548,-0.0544,-0.0484,-0.0456,-0.0427,-0.019,-0.0178,-0.0261,-0.0276,-0.0229,-0.0207,-0.0102,-0.0172,-0.0162,-0.0171,-0.0299,-0.0192,-0.0199,-0.0203,-0.0206,-0.0542,-0.0546,0,0,0,0,0,0,-0.0538,-0.0533,-0.0466,-0.0444,-0.0419,-0.015,-0.0266,-0.0246,-0.0072,-0.0244,-0.0063,-0.0059,-0.0176,-0.0181,-0.0169,-0.0293,-0.0297,-0.0192,-0.0197,-0.02,-0.0202,0,0,0,0,0,0,0,-0.0529,-0.0667,-0.0595,-0.0433,-0.0412,-0.0214,-0.0212,-0.021,-0.0071,-0.0068,-0.0064,-0.006,-0.0155,-0.0162,-0.0169,-0.0289,0,0,-0.0192,-0.0195,0,0,0,0,0,0,0,0,-0.0658,-0.0665,-0.0594,-0.0585,-0.0577,-0.0213,-0.0212,-0.0211,-0.0071,-0.0068,-0.0065,-0.0062,-0.0157,-0.0163,-0.0169,0,0,0,0,0,0,0,0,0,0,0,0,0,0,0,-0.0593,-0.0586,0,-0.0213,-0.0212,-0.0211,-0.007,-0.0068,-0.0065,-0.0063,-0.0159,-0.0163,-0.0168,0,0,0,0,0,0,0,0,0,0,0,0,0,0,0,0,0,0,0,0,0,0,0,0,0,0,0,0,0,0,0,0,0,0,0,0,0,0,0,0,0,0,0,0,0,0,0,0,0,0,0,0,0,0,0,0,0,0,0,0,0,0,0,0,0,0,0,0,0]}]],[[{"header":{"parameterUnit":"kt","parameterCategory":2,"dx":1,"dy":1,"la1":30.253999710083008,"la2":30.299108505249023,"lo1":-89.0895004272461,"lo2":-89.04439544677734,"nx":28,"ny":28,"refTime":"2022-10-20T21:00:00:Z","depth":"4","parameterNumber":2,"parameterNumberName":"U-component_of_CURRENTS"},"data":[0.0405,0.0444,0.0454,0.0501,0.0542,0.0615,0.0656,0.0714,0.0687,0.0803,0.08,0.0955,0.0974,0.1013,0.1041,0.1065,0.1112,0.1236,0.1236,0.134,0.1347,0.1353,0.124,0,0,0,0,0,0.0429,0.0433,0.0489,0.0566,0.0651,0.0718,0.0787,0.0828,0.0933,0.0902,0.0978,0.0977,0.1034,0.1058,0.1056,0.1164,0.1236,0.1164,0.1248,0.1344,0.1352,0.124,0,0,0,0,0,0,0.0463,0.0472,0.0548,0.0642,0.0741,0.077,0.0824,0.0869,0.0925,0.1065,0.1036,0.1118,0.1195,0.1207,0.1209,0.1232,0.1232,0.1238,0.1251,0.1259,0.1154,0.112,0.1096,0,0,0,0,0,0.0505,0.0553,0.0599,0.071,0.0801,0.0867,0.0971,0.098,0.11,0.1217,0.1211,0.1239,0.1265,0.126,0.1306,0.1299,0.1412,0.1403,0.1408,0.135,0.1343,0.1349,0.1347,0.1381,0.1382,0.1383,0.1383,0,0.057,0.0592,0.072,0.0773,0.0841,0.0952,0.1026,0.1154,0.118,0.1304,0.13,0.1361,0.137,0.1348,0.1375,0.1399,0.1375,0.1423,0.1362,0.1355,0.1359,0.1356,0.1352,0.139,0.1389,0.1389,0.1388,0,0.0605,0.0676,0.0734,0.0861,0.0916,0.0981,0.1127,0.1169,0.1279,0.1329,0.1348,0.14,0.14,0.1433,0.1447,0.143,0.142,0.1409,0.1467,0.1476,0.1367,0.1361,0.14,0.1397,0.1396,0.1394,0.1393,0,0.0673,0.0717,0.0833,0.0857,0.0941,0.1038,0.1118,0.1181,0.1273,0.1316,0.1364,0.1362,0.1393,0.1407,0.139,0.1377,0.1427,0.1347,0.1355,0.1386,0.1381,0.1369,0.1361,0.1426,0.1425,0.1424,0.1424,0,0.07,0.0797,0.0842,0.0878,0.098,0.1039,0.1097,0.1189,0.1241,0.1305,0.1348,0.1354,0.1376,0.1372,0.1355,0.1342,0.1394,0.1389,0.1344,0.1342,0.136,0.1354,0.1422,0.1422,0.1422,0.1422,0.1421,0,0.0751,0.0793,0.0859,0.0948,0.0973,0.1024,0.1104,0.116,0.1236,0.1284,0.1307,0.1314,0.1315,0.1289,0.1309,0.1281,0.1296,0.1304,0.1309,0.1206,0.1203,0.1302,0.1382,0.1381,0.138,0.1379,0.1378,0,0.0752,0.0811,0.0849,0.0915,0.0948,0.1006,0.1062,0.1128,0.1177,0.1233,0.1249,0.1281,0.1244,0.1245,0.1245,0.1237,0.1265,0.122,0.1275,0.1277,0.1184,0.1233,0.1237,0.1364,0.1366,0.1367,0.1368,0,0.0739,0.0808,0.0823,0.0856,0.0929,0.0959,0.1021,0.1073,0.1114,0.1183,0.1231,0.1231,0.1234,0.1222,0.1197,0.1203,0.125,0.1184,0.1183,0.1223,0.1315,0.123,0.123,0.1234,0.1235,0.1235,0.1359,0,0.0761,0.0794,0.0814,0.0856,0.0896,0.094,0.0987,0.1036,0.1084,0.1122,0.1175,0.1173,0.118,0.119,0.1156,0.1171,0.1181,0.116,0.1123,0.1168,0.1221,0.1229,0.1126,0.1125,0.1124,0.1123,0,0,0.0744,0.0756,0.0777,0.0814,0.0844,0.0876,0.0918,0.0954,0.1021,0.1053,0.1072,0.1105,0.11,0.1096,0.1111,0.1119,0.1134,0.1093,0.1153,0.1156,0.1159,0.1211,0.1219,0.1122,0.1122,0.1121,0.1121,0,0.073,0.0745,0.0763,0.0797,0.0848,0.0859,0.0882,0.0938,0.0982,0.1035,0.103,0.1052,0.1074,0.1064,0.1055,0.1106,0.1093,0.1117,0.1129,0.1146,0.115,0.1154,0.1206,0.1214,0.1119,0.1119,0.1119,0,0.0717,0.0728,0.0735,0.0764,0.0795,0.0824,0.0836,0.0892,0.0929,0.0915,0.0982,0.0985,0.0971,0.1,0.1015,0.0998,0.1055,0.103,0.1035,0.1014,0.1028,0.1034,0.104,0.0967,0.0967,0.0966,0,0,0.0714,0.0725,0.0747,0.0763,0.078,0.0816,0.0839,0.0873,0.0902,0.0925,0.0942,0.0958,0.0959,0.0968,0.0976,0.0994,0.0993,0.1012,0.1019,0.1025,0.1008,0.1023,0.103,0.0965,0.0965,0.0965,0,0,0.0714,0.0728,0.0739,0.0751,0.0784,0.0811,0.0839,0.0862,0.0903,0.0924,0.0912,0.0914,0.095,0.0941,0.0919,0.0967,0.0938,0.0942,0.0968,0.0977,0.0984,0.0961,0.089,0,0,0,0,0,0.0714,0.072,0.0729,0.0733,0.0766,0.0799,0.0807,0.0844,0.0864,0.0894,0.0913,0.0896,0.0936,0.0916,0.0914,0.0936,0.0941,0.0945,0.0949,0.0987,0.0997,0.1005,0,0,0,0,0,0,0.0715,0.0719,0.0729,0.075,0.0758,0.0798,0.0806,0.0817,0.0862,0.087,0.0894,0.0895,0.0885,0.0915,0.0914,0.0936,0.0891,0.0942,0.0946,0.0949,0.099,0.0998,0.1005,0,0,0,0,0,0.0717,0.072,0.0762,0.0751,0.0758,0.0803,0.0808,0.0817,0.0867,0.0855,0.0861,0.0898,0.0884,0.0885,0.0914,0.0937,0.0891,0.0891,0.0945,0.0947,0.095,0.0994,0,0,0,0,0,0,0.0718,0.0736,0.0764,0.0768,0.0759,0.0804,0.0812,0.0816,0.0851,0.0857,0.0854,0.0858,0.0883,0.0884,0.0884,0.094,0.0892,0.0892,0.0891,0.0947,0.0949,0.0951,0,0,0,0,0,0,0.0734,0.0739,0.0766,0.0774,0.078,0.0804,0.0811,0.0801,0.0849,0.0848,0.0853,0.0855,0.0869,0.0883,0.0883,0.0868,0.0893,0.0892,0.0892,0.0892,0.0949,0.095,0,0,0,0,0,0,0.0737,0.0741,0.0774,0.0778,0.0783,0.083,0.0796,0.0822,0.0877,0.0846,0.088,0.0882,0.0866,0.0868,0.0882,0.0867,0.0868,0.0893,0.0892,0.0892,0.0892,0,0,0,0,0,0,0,0.0739,0.0702,0.0738,0.0781,0.0785,0.0802,0.0803,0.0804,0.0877,0.0879,0.088,0.0881,0.0896,0.0895,0.0895,0.0866,0,0,0.0893,0.0893,0,0,0,0,0,0,0,0,0.0701,0.0702,0.0738,0.0738,0.0739,0.0802,0.0803,0.0804,0.0878,0.0879,0.088,0.0881,0.0896,0.0895,0.0895,0,0,0,0,0,0,0,0,0,0,0,0,0,0,0,0.0738,0.0738,0,0.0802,0.0803,0.0804,0.0878,0.0879,0.0879,0.088,0.0895,0.0895,0.0895,0,0,0,0,0,0,0,0,0,0,0,0,0,0,0,0,0,0,0,0,0,0,0,0,0,0,0,0,0,0,0,0,0,0,0,0,0,0,0,0,0,0,0,0,0,0,0,0,0,0,0,0,0,0,0,0,0,0,0,0,0,0,0,0,0,0,0,0,0]}],[{"header":{"parameterUnit":"kt","parameterCategory":2,"dx":1,"dy":1,"la1":30.253999710083008,"la2":30.299108505249023,"lo1":-89.0895004272461,"lo2":-89.04439544677734,"nx":28,"ny":28,"refTime":"2022-10-20T21:00:00:Z","depth":"4","parameterNumber":3,"parameterNumberName":"V-component_of_CURRENTS"},"data":[0.0005,0.0071,0.0077,0.015,0.0155,0.0198,0.0212,0.0226,0.0268,0.0274,0.0217,0.0163,0.0039,0.0135,-0.0098,-0.0131,-0.0323,-0.0333,-0.0336,-0.0649,-0.0659,-0.0668,-0.0747,0,0,0,0,0,-0.0053,-0.0023,0.0049,0.0078,0.0126,0.0105,0.0179,0.0175,0.019,0.0276,0.0222,0.0231,0.0086,0.0036,-0.0077,-0.0122,-0.0387,-0.0262,-0.0528,-0.0655,-0.0666,-0.0739,0,0,0,0,0,0,-0.0131,-0.0092,-0.0054,-0.0031,0.0012,0.0053,0.0045,0.0112,0.0124,0.0137,0.0213,0.0131,0.0079,-0.0081,-0.0111,-0.0229,-0.0356,-0.0467,-0.0487,-0.05,-0.0526,-0.0513,-0.024,0,0,0,0,0,-0.0202,-0.023,-0.0179,-0.0135,-0.0124,-0.009,-0.0079,-0.0036,-0.007,-0.0099,-0.0007,-0.0084,-0.0054,-0.0205,-0.0256,-0.0355,-0.0632,-0.0573,-0.0585,-0.0817,-0.0829,-0.0828,-0.0845,-0.0709,-0.071,-0.0711,-0.0712,0,-0.0301,-0.0284,-0.0262,-0.0236,-0.0247,-0.0264,-0.0259,-0.0336,-0.0292,-0.0276,-0.0216,-0.0239,-0.0308,-0.0281,-0.0442,-0.0557,-0.0597,-0.0599,-0.0845,-0.0849,-0.0841,-0.0856,-0.087,-0.0721,-0.072,-0.0719,-0.0718,0,-0.0351,-0.0357,-0.0307,-0.0307,-0.0318,-0.0328,-0.0361,-0.0342,-0.0448,-0.0415,-0.0466,-0.0552,-0.057,-0.0667,-0.0699,-0.0791,-0.0794,-0.0763,-0.0845,-0.0832,-0.088,-0.0891,-0.0735,-0.0732,-0.0729,-0.0727,-0.0725,0,-0.0403,-0.0377,-0.0386,-0.0362,-0.0341,-0.0402,-0.0411,-0.0469,-0.0533,-0.0515,-0.0724,-0.0706,-0.0919,-0.0888,-0.0986,-0.0966,-0.0954,-0.1037,-0.1013,-0.1159,-0.1168,-0.1105,-0.1109,-0.1085,-0.1086,-0.1087,-0.1088,0,-0.0463,-0.0436,-0.0407,-0.0405,-0.0398,-0.0431,-0.0452,-0.0528,-0.0552,-0.0697,-0.0741,-0.0885,-0.095,-0.1017,-0.1081,-0.1173,-0.1038,-0.1136,-0.1066,-0.1061,-0.1113,-0.1115,-0.109,-0.109,-0.109,-0.1091,-0.1091,0,-0.0519,-0.0488,-0.0462,-0.0447,-0.0448,-0.0454,-0.0479,-0.0518,-0.0613,-0.0735,-0.088,-0.0986,-0.1079,-0.1191,-0.1216,-0.1273,-0.1285,-0.1286,-0.1279,-0.1176,-0.1175,-0.1203,-0.1201,-0.1203,-0.1205,-0.1206,-0.1207,0,-0.0558,-0.0518,-0.054,-0.0508,-0.0483,-0.0539,-0.0559,-0.0624,-0.0725,-0.0797,-0.0956,-0.1061,-0.1202,-0.1298,-0.1333,-0.134,-0.1332,-0.1395,-0.1256,-0.125,-0.1209,-0.119,-0.1382,-0.1229,-0.1226,-0.1224,-0.1223,0,-0.0593,-0.0584,-0.0591,-0.0581,-0.0611,-0.0601,-0.0641,-0.0677,-0.0705,-0.0894,-0.0961,-0.1127,-0.1238,-0.1266,-0.1339,-0.1348,-0.1356,-0.139,-0.1386,-0.1337,-0.1276,-0.1222,-0.1204,-0.139,-0.1388,-0.1387,-0.1237,0,-0.0615,-0.0623,-0.0614,-0.0613,-0.0627,-0.063,-0.0674,-0.0728,-0.0848,-0.0922,-0.1055,-0.1152,-0.1241,-0.1301,-0.1346,-0.1371,-0.1361,-0.1361,-0.1339,-0.1355,-0.1286,-0.1275,-0.138,-0.1379,-0.1377,-0.1376,0,0,-0.0657,-0.0643,-0.0669,-0.0663,-0.0669,-0.072,-0.0718,-0.0763,-0.0853,-0.0905,-0.1007,-0.1154,-0.121,-0.1245,-0.1305,-0.1312,-0.1291,-0.1365,-0.1352,-0.1351,-0.1348,-0.1284,-0.1275,-0.1373,-0.1373,-0.1372,-0.1372,0,-0.0646,-0.0677,-0.067,-0.068,-0.0714,-0.0722,-0.0737,-0.08,-0.0875,-0.0958,-0.1011,-0.1099,-0.1205,-0.1229,-0.1256,-0.1292,-0.13,-0.1352,-0.138,-0.1343,-0.1343,-0.1342,-0.128,-0.1273,-0.1368,-0.1368,-0.1369,0,-0.0667,-0.0674,-0.068,-0.0695,-0.0721,-0.0712,-0.078,-0.082,-0.0849,-0.0918,-0.1006,-0.1079,-0.1114,-0.119,-0.1227,-0.1218,-0.1273,-0.13,-0.1306,-0.1274,-0.1231,-0.1231,-0.1232,-0.1225,-0.1225,-0.1225,0,0,-0.0667,-0.067,-0.0686,-0.0694,-0.07,-0.0753,-0.0773,-0.083,-0.0877,-0.0919,-0.0991,-0.1057,-0.1104,-0.1149,-0.1182,-0.123,-0.1175,-0.1287,-0.1293,-0.1299,-0.1272,-0.123,-0.1231,-0.1225,-0.1225,-0.1225,0,0,-0.0669,-0.0679,-0.0713,-0.0717,-0.0737,-0.0767,-0.0788,-0.0839,-0.091,-0.0954,-0.1013,-0.1032,-0.1112,-0.1116,-0.1107,-0.1225,-0.1189,-0.1191,-0.1258,-0.1266,-0.1272,-0.1238,-0.1164,0,0,0,0,0,-0.0668,-0.0663,-0.0692,-0.0696,-0.0738,-0.0739,-0.0748,-0.0826,-0.089,-0.0912,-0.0981,-0.1027,-0.1129,-0.1122,-0.1132,-0.1214,-0.1224,-0.1224,-0.1224,-0.1318,-0.1327,-0.1334,0,0,0,0,0,0,-0.0669,-0.0673,-0.0691,-0.0712,-0.0722,-0.074,-0.0811,-0.0832,-0.0891,-0.0909,-0.101,-0.1027,-0.1067,-0.1121,-0.1129,-0.1208,-0.1162,-0.1224,-0.1224,-0.1224,-0.1321,-0.1328,-0.1334,0,0,0,0,0,-0.067,-0.0673,-0.0726,-0.0715,-0.0723,-0.0807,-0.0815,-0.0834,-0.0907,-0.0953,-0.0977,-0.097,-0.1063,-0.1077,-0.1126,-0.1205,-0.1157,-0.1159,-0.1224,-0.1224,-0.1224,-0.1325,0,0,0,0,0,0,-0.0671,-0.0703,-0.0729,-0.0734,-0.0747,-0.0811,-0.0826,-0.0834,-0.0953,-0.0972,-0.091,-0.0922,-0.1059,-0.1071,-0.1081,-0.1204,-0.1153,-0.1155,-0.1157,-0.1224,-0.1224,-0.1224,0,0,0,0,0,0,-0.0701,-0.0707,-0.0732,-0.0769,-0.0779,-0.0814,-0.0827,-0.0841,-0.0954,-0.0906,-0.0917,-0.0914,-0.1049,-0.1066,-0.1074,-0.1093,-0.115,-0.1152,-0.1154,-0.1155,-0.1224,-0.1224,0,0,0,0,0,0,-0.0705,-0.071,-0.0769,-0.0776,-0.0786,-0.0854,-0.0831,-0.0882,-0.0955,-0.0901,-0.0965,-0.097,-0.1041,-0.1052,-0.1069,-0.1083,-0.109,-0.115,-0.1151,-0.1153,-0.1153,0,0,0,0,0,0,0,-0.0708,-0.0658,-0.069,-0.0783,-0.0792,-0.0777,-0.078,-0.0782,-0.0956,-0.096,-0.0964,-0.0968,-0.1135,-0.1138,-0.114,-0.1075,0,0,-0.1149,-0.1151,0,0,0,0,0,0,0,0,-0.0657,-0.0658,-0.069,-0.069,-0.0691,-0.0778,-0.078,-0.0782,-0.0956,-0.096,-0.0963,-0.0966,-0.1135,-0.1138,-0.114,0,0,0,0,0,0,0,0,0,0,0,0,0,0,0,-0.069,-0.069,0,-0.0778,-0.078,-0.0781,-0.0957,-0.096,-0.0963,-0.0965,-0.1136,-0.1138,-0.114,0,0,0,0,0,0,0,0,0,0,0,0,0,0,0,0,0,0,0,0,0,0,0,0,0,0,0,0,0,0,0,0,0,0,0,0,0,0,0,0,0,0,0,0,0,0,0,0,0,0,0,0,0,0,0,0,0,0,0,0,0,0,0,0,0,0,0,0,0]}]]]